User: anonymous   Login
Location: *
(45.9500°N, 9.0833°E)
Time: 13:14:44
(UTC+00:00)
Language:

Cosmos 864 Rocket - Orbit

View from above orbital plane
View from above orbital plane
View from above satellite
View from above satellite

Ground track
Ground track

The orbit data is extracted from the following two-line orbital elements,

1 09510U 76108B   21126.85222463  .00000021  00000-0  53646-5 0  9993
2 09510  82.9402  48.1875 0026277 164.3935 195.8038 13.77595599236937
Epoch (UTC): 06 May 2021 20:27:12
Eccentricity: 0.0026277
inclination: 82.9402°
perigee height: 953 km
apogee height: 992 km
right ascension of ascending node: 48.1875°
argument of perigee: 164.3935°
revolutions per day: 13.77595599
mean anomaly at epoch: 195.8038°
orbit number at epoch: 23693

The dashed part of the orbit path shows where the satellite is in the earth's shadow,  

DLR